BXS1836 YBCS-YPDN

Flight info

Callsign BXS1836
Flight time 2h 19m
Altitude 36000
Route PUNIT J61 DUMAV Q91 ALLEE Q23 VEGPU
Aircraft A321/M-SDE3FGHIRWY/LB1

Departure

Time 2026-04-21 19:53
Airport Cairns International Airport (YBCS)

Arrival

Time 2026-04-21 22:13
Airport Darwin International Airport / RAAF Darwin (YPDN)
Time Latitude Longitude Altitude Speed Heading
2026-04-21 19:08 -16.87779 145.75257 11 ft 0 kts
2026-04-21 19:36 -16.87784 145.75256 12 ft 3 kts
2026-04-21 19:36 -16.87793 145.75253 12 ft 4 kts 22°
2026-04-21 19:36 -16.87817 145.75240 11 ft 4 kts 35°
2026-04-21 19:36 -16.87827 145.75232 12 ft 1 kts 35°
2026-04-21 19:37 -16.87828 145.75232 13 ft 0 kts 35°
2026-04-21 19:39 -16.87834 145.75227 11 ft 2 kts 19°
2026-04-21 19:39 -16.87844 145.75224 13 ft 2 kts 352°
2026-04-21 19:40 -16.87851 145.75225 13 ft 1 kts 333°
2026-04-21 19:40 -16.87844 145.75220 13 ft 1 kts 324°
2026-04-21 19:40 -16.87836 145.75214 12 ft 1 kts 324°
2026-04-21 19:40 -16.87828 145.75210 12 ft 0 kts 335°
2026-04-21 19:44 -16.87824 145.75208 11 ft 2 kts 336°
2026-04-21 19:44 -16.87796 145.75195 13 ft 6 kts 336°
2026-04-21 19:45 -16.87748 145.75172 12 ft 8 kts 336°
2026-04-21 19:45 -16.87703 145.75151 13 ft 7 kts 336°
2026-04-21 19:45 -16.87671 145.75137 12 ft 7 kts 336°
2026-04-21 19:45 -16.87624 145.75123 12 ft 7 kts 348°
2026-04-21 19:46 -16.87579 145.75108 12 ft 7 kts 335°
2026-04-21 19:46 -16.87541 145.75091 12 ft 5 kts 338°
2026-04-21 19:46 -16.87510 145.75078 13 ft 4 kts 336°
2026-04-21 19:46 -16.87489 145.75068 4 ft 3 kts 336°
2026-04-21 19:47 -16.87474 145.75061 6 ft 3 kts 336°
2026-04-21 19:47 -16.87453 145.75052 -18 ft 4 kts 336°
2026-04-21 19:47 -16.87428 145.75040 -3 ft 4 kts 337°
2026-04-21 19:47 -16.87398 145.75027 -2 ft 5 kts 337°
2026-04-21 19:48 -16.87362 145.75009 -1 ft 7 kts 329°
2026-04-21 19:48 -16.87325 145.74969 -1 ft 9 kts 301°
2026-04-21 19:48 -16.87291 145.74896 -4 ft 13 kts 301°
2026-04-21 19:48 -16.87213 145.74838 -4 ft 14 kts 336°
2026-04-21 19:49 -16.87126 145.74799 -4 ft 13 kts 337°
2026-04-21 19:49 -16.87056 145.74742 -5 ft 14 kts 289°
2026-04-21 19:49 -16.87077 145.74640 -7 ft 15 kts 253°
2026-04-21 19:49 -16.87033 145.74560 -8 ft 13 kts 332°
2026-04-21 19:50 -16.86980 145.74534 -7 ft 12 kts 336°
2026-04-21 19:50 -16.86886 145.74492 -6 ft 11 kts 337°
2026-04-21 19:50 -16.86814 145.74461 -6 ft 12 kts 337°
2026-04-21 19:50 -16.86739 145.74427 -5 ft 12 kts 336°
2026-04-21 19:51 -16.86672 145.74394 -5 ft 10 kts 325°
2026-04-21 19:51 -16.86624 145.74354 -3 ft 8 kts 346°
2026-04-21 19:51 -16.86618 145.74379 -3 ft 5 kts 141°
2026-04-21 19:51 -16.86661 145.74394 -1 ft 8 kts 160°
2026-04-21 19:52 -16.86670 145.74397 -5 ft 1 kts 158°
2026-04-21 19:52 -16.86680 145.74402 -5 ft 2 kts 158°
2026-04-21 19:52 -16.86683 145.74403 -5 ft 2 kts 158°
2026-04-21 19:52 -16.86888 145.74495 -6 ft 67 kts 157°
2026-04-21 19:53 -16.87507 145.74777 0 ft 123 kts 156°
2026-04-21 19:53 -16.88425 145.75193 37 ft 161 kts 157°
2026-04-21 19:53 -16.89452 145.75644 583 ft 159 kts 158°
2026-04-21 19:53 -16.90475 145.76089 1181 ft 159 kts 157°
2026-04-21 19:54 -16.91502 145.76531 1762 ft 161 kts 162°
2026-04-21 19:54 -16.92665 145.76376 1953 ft 189 kts 211°
2026-04-21 19:54 -16.93448 145.75184 2122 ft 220 kts 254°
2026-04-21 19:54 -16.93319 145.73509 2264 ft 248 kts 285°
2026-04-21 19:55 -16.92655 145.71745 2496 ft 272 kts 293°
2026-04-21 19:55 -16.91821 145.69931 3141 ft 281 kts 294°
2026-04-21 19:55 -16.90969 145.68061 3792 ft 289 kts 293°
2026-04-21 19:55 -16.90147 145.66132 4572 ft 292 kts 292°
2026-04-21 19:56 -16.89366 145.64163 5289 ft 296 kts 292°
2026-04-21 19:56 -16.88614 145.62157 6083 ft 298 kts 291°
2026-04-21 19:56 -16.87876 145.60118 6805 ft 302 kts 291°
2026-04-21 19:56 -16.87145 145.58060 7575 ft 303 kts 291°
2026-04-21 19:57 -16.86415 145.55991 8363 ft 303 kts 291°
2026-04-21 19:57 -16.85688 145.53925 9137 ft 303 kts 291°
2026-04-21 19:57 -16.84956 145.51852 9841 ft 305 kts 290°
2026-04-21 19:57 -16.84217 145.49765 10362 ft 314 kts 290°
2026-04-21 19:58 -16.83433 145.47555 10478 ft 335 kts 290°
2026-04-21 19:58 -16.82612 145.45242 10686 ft 351 kts 289°
2026-04-21 19:58 -16.81753 145.42826 11179 ft 357 kts 289°
2026-04-21 19:58 -16.80873 145.40353 11781 ft 360 kts 289°
2026-04-21 19:59 -16.80012 145.37934 12379 ft 362 kts 289°
2026-04-21 19:59 -16.79132 145.35463 12987 ft 364 kts 289°
2026-04-21 19:59 -16.78246 145.32973 13567 ft 366 kts 289°
2026-04-21 19:59 -16.77358 145.30480 14143 ft 367 kts 288°
2026-04-21 20:00 -16.76464 145.27976 14691 ft 368 kts 288°
2026-04-21 20:00 -16.75568 145.25467 15173 ft 371 kts 288°
2026-04-21 20:00 -16.74666 145.22940 15670 ft 373 kts 287°
2026-04-21 20:00 -16.73757 145.20394 16143 ft 376 kts 287°
2026-04-21 20:01 -16.72841 145.17828 16607 ft 379 kts 287°
2026-04-21 20:01 -16.71919 145.15245 17032 ft 382 kts 287°
2026-04-21 20:01 -16.70990 145.12638 17478 ft 385 kts 287°
2026-04-21 20:01 -16.70052 145.10007 17905 ft 388 kts 287°
2026-04-21 20:02 -16.69427 145.08256 18188 ft 390 kts 288°
2026-04-21 20:02 -16.68154 145.04702 18687 ft 393 kts 288°
2026-04-21 20:02 -16.67191 145.02022 19045 ft 395 kts 288°
2026-04-21 20:02 -16.66224 144.99334 19412 ft 397 kts 288°
2026-04-21 20:03 -16.65257 144.96635 19757 ft 399 kts 287°
2026-04-21 20:03 -16.64283 144.93915 20117 ft 401 kts 287°
2026-04-21 20:03 -16.63308 144.91188 20473 ft 402 kts 287°
2026-04-21 20:03 -16.62510 144.88394 20819 ft 402 kts 282°
2026-04-21 20:04 -16.61770 144.85579 21166 ft 404 kts 282°
2026-04-21 20:04 -16.61026 144.82750 21514 ft 405 kts 282°
2026-04-21 20:04 -16.60278 144.79908 21866 ft 407 kts 282°
2026-04-21 20:04 -16.59529 144.77061 22210 ft 409 kts 282°
2026-04-21 20:05 -16.58769 144.74195 22535 ft 411 kts 282°
2026-04-21 20:05 -16.58006 144.71320 22860 ft 413 kts 282°
2026-04-21 20:05 -16.57251 144.68469 23173 ft 414 kts 282°
2026-04-21 20:05 -16.56483 144.65573 23510 ft 416 kts 282°
2026-04-21 20:06 -16.55708 144.62660 23788 ft 418 kts 282°
2026-04-21 20:06 -16.54929 144.59736 24059 ft 419 kts 282°
2026-04-21 20:06 -16.54138 144.56764 24335 ft 421 kts 282°
2026-04-21 20:06 -16.53357 144.53824 24610 ft 422 kts 282°
2026-04-21 20:07 -16.52582 144.50909 24882 ft 423 kts 282°
2026-04-21 20:07 -16.51789 144.47909 25153 ft 425 kts 282°
2026-04-21 20:07 -16.51267 144.45939 25327 ft 426 kts 282°
2026-04-21 20:07 -16.50218 144.41992 25689 ft 428 kts 283°
2026-04-21 20:08 -16.49422 144.39002 25962 ft 429 kts 282°
2026-04-21 20:08 -16.48622 144.35996 26226 ft 431 kts 283°
2026-04-21 20:08 -16.47818 144.32987 26481 ft 432 kts 283°
2026-04-21 20:08 -16.47008 144.29964 26737 ft 434 kts 283°
2026-04-21 20:09 -16.46198 144.26932 26996 ft 435 kts 283°
2026-04-21 20:09 -16.45386 144.23891 27255 ft 437 kts 283°
2026-04-21 20:09 -16.44568 144.20837 27512 ft 438 kts 283°
2026-04-21 20:09 -16.43745 144.17772 27754 ft 440 kts 283°
2026-04-21 20:10 -16.42921 144.14694 28007 ft 442 kts 283°
2026-04-21 20:10 -16.42094 144.11612 28254 ft 443 kts 283°
2026-04-21 20:10 -16.41533 144.09518 28416 ft 444 kts 283°
2026-04-21 20:10 -16.40701 144.06413 28663 ft 446 kts 283°
2026-04-21 20:11 -16.39877 144.03341 28906 ft 447 kts 283°
2026-04-21 20:11 -16.39038 144.00217 29123 ft 449 kts 283°
2026-04-21 20:11 -16.38197 143.97083 29348 ft 450 kts 283°
2026-04-21 20:11 -16.37355 143.93939 29560 ft 452 kts 283°
2026-04-21 20:12 -16.36508 143.90786 29777 ft 453 kts 283°
2026-04-21 20:12 -16.35656 143.87622 30005 ft 454 kts 283°
2026-04-21 20:12 -16.34802 143.84453 30202 ft 456 kts 283°
2026-04-21 20:12 -16.33943 143.81270 30401 ft 457 kts 283°
2026-04-21 20:13 -16.33080 143.78084 30609 ft 458 kts 283°
2026-04-21 20:13 -16.32217 143.74899 30905 ft 456 kts 283°
2026-04-21 20:13 -16.31358 143.71728 31216 ft 454 kts 283°
2026-04-21 20:13 -16.30505 143.68572 31520 ft 452 kts 283°
2026-04-21 20:14 -16.29655 143.65424 31855 ft 450 kts 283°
2026-04-21 20:14 -16.28809 143.62296 32178 ft 449 kts 283°
2026-04-21 20:14 -16.27966 143.59175 32510 ft 447 kts 283°
2026-04-21 20:14 -16.27129 143.56075 32842 ft 445 kts 283°
2026-04-21 20:15 -16.26290 143.52984 33175 ft 443 kts 283°
2026-04-21 20:15 -16.25454 143.49911 33518 ft 441 kts 283°
2026-04-21 20:15 -16.24624 143.46850 33836 ft 439 kts 283°
2026-04-21 20:15 -16.23795 143.43798 34140 ft 437 kts 283°
2026-04-21 20:16 -16.22967 143.40759 34407 ft 436 kts 283°
2026-04-21 20:16 -16.22144 143.37730 34665 ft 435 kts 283°
2026-04-21 20:16 -16.21321 143.34705 34914 ft 434 kts 283°
2026-04-21 20:16 -16.20498 143.31686 35161 ft 433 kts 283°
2026-04-21 20:17 -16.19677 143.28679 35403 ft 432 kts 283°
2026-04-21 20:17 -16.18856 143.25673 35641 ft 432 kts 283°
2026-04-21 20:17 -16.18034 143.22668 35874 ft 431 kts 283°
2026-04-21 20:17 -16.17217 143.19670 36010 ft 431 kts 283°
2026-04-21 20:18 -16.16404 143.16683 36035 ft 429 kts 283°
2026-04-21 20:18 -16.14792 143.10766 36034 ft 427 kts 283°
2026-04-21 20:19 -16.13165 143.04827 36033 ft 427 kts 283°
2026-04-21 20:19 -16.11539 142.98891 36033 ft 427 kts 283°
2026-04-21 20:20 -16.09913 142.92949 36033 ft 427 kts 283°
2026-04-21 20:20 -16.08280 142.86999 36036 ft 427 kts 283°
2026-04-21 20:21 -16.06642 142.81054 36041 ft 428 kts 283°
2026-04-21 20:21 -16.05007 142.75114 36034 ft 428 kts 283°
2026-04-21 20:22 -16.03375 142.69168 36040 ft 428 kts 283°
2026-04-21 20:22 -16.00907 142.60247 36044 ft 428 kts 283°
2026-04-21 20:23 -15.99261 142.54304 36039 ft 428 kts 283°
2026-04-21 20:23 -15.97622 142.48366 36038 ft 428 kts 283°
2026-04-21 20:24 -15.95975 142.42424 36034 ft 428 kts 283°
2026-04-21 20:24 -15.94328 142.36486 36037 ft 428 kts 283°
2026-04-21 20:25 -15.92674 142.30541 36039 ft 428 kts 283°
2026-04-21 20:25 -15.91019 142.24601 36035 ft 428 kts 283°
2026-04-21 20:26 -15.89372 142.18664 36030 ft 428 kts 283°
2026-04-21 20:26 -15.87714 142.12732 36031 ft 428 kts 284°
2026-04-21 20:27 -15.86058 142.06795 36028 ft 427 kts 283°
2026-04-21 20:27 -15.84413 142.00864 36022 ft 428 kts 284°
2026-04-21 20:28 -15.82752 141.94926 36022 ft 428 kts 284°
2026-04-21 20:28 -15.81086 141.88990 36013 ft 429 kts 284°
2026-04-21 20:29 -15.79416 141.83041 36014 ft 429 kts 284°
2026-04-21 20:29 -15.77752 141.77123 36017 ft 430 kts 284°
2026-04-21 20:30 -15.76075 141.71164 36030 ft 430 kts 284°
2026-04-21 20:30 -15.74396 141.65200 36033 ft 430 kts 284°
2026-04-21 20:31 -15.72710 141.59243 36027 ft 430 kts 284°
2026-04-21 20:31 -15.71028 141.53278 36033 ft 431 kts 284°
2026-04-21 20:32 -15.69341 141.47308 36035 ft 431 kts 284°
2026-04-21 20:32 -15.67653 141.41345 36033 ft 431 kts 284°
2026-04-21 20:33 -15.65958 141.35381 36036 ft 431 kts 284°
2026-04-21 20:33 -15.64271 141.29425 36023 ft 431 kts 284°
2026-04-21 20:34 -15.62577 141.23459 36025 ft 431 kts 284°
2026-04-21 20:34 -15.60889 141.17506 36027 ft 431 kts 284°
2026-04-21 20:35 -15.59195 141.11549 36026 ft 430 kts 284°
2026-04-21 20:35 -15.57496 141.05591 36011 ft 431 kts 284°
2026-04-21 20:36 -15.55797 140.99639 36015 ft 431 kts 284°
2026-04-21 20:36 -15.54095 140.93676 36010 ft 431 kts 284°
2026-04-21 20:37 -15.52389 140.87712 36009 ft 431 kts 284°
2026-04-21 20:37 -15.50682 140.81741 36007 ft 431 kts 284°
2026-04-21 20:38 -15.48977 140.75777 36007 ft 431 kts 284°
2026-04-21 20:38 -15.47267 140.69815 36008 ft 432 kts 284°
2026-04-21 20:39 -15.45556 140.63851 36004 ft 432 kts 284°
2026-04-21 20:39 -15.43840 140.57895 36003 ft 431 kts 284°
2026-04-21 20:40 -15.42121 140.51937 36002 ft 431 kts 284°
2026-04-21 20:40 -15.40405 140.45988 36010 ft 431 kts 284°
2026-04-21 20:41 -15.38704 140.40081 36001 ft 430 kts 284°
2026-04-21 20:41 -15.36988 140.34136 35997 ft 431 kts 284°
2026-04-21 20:42 -15.35271 140.28195 35993 ft 431 kts 284°
2026-04-21 20:42 -15.33547 140.22243 35991 ft 431 kts 284°
2026-04-21 20:43 -15.31826 140.16290 35988 ft 431 kts 284°
2026-04-21 20:43 -15.30102 140.10343 35991 ft 431 kts 284°
2026-04-21 20:44 -15.28374 140.04397 35994 ft 431 kts 284°
2026-04-21 20:44 -15.26648 139.98454 35993 ft 431 kts 284°
2026-04-21 20:45 -15.24923 139.92521 35991 ft 430 kts 284°
2026-04-21 20:45 -15.23197 139.86585 35989 ft 431 kts 284°
2026-04-21 20:46 -15.21474 139.80683 35989 ft 431 kts 285°
2026-04-21 20:46 -15.19731 139.74707 35983 ft 431 kts 285°
2026-04-21 20:47 -15.17998 139.68757 35988 ft 432 kts 284°
2026-04-21 20:47 -15.16258 139.62813 35993 ft 431 kts 285°
2026-04-21 20:48 -15.14518 139.56872 35993 ft 431 kts 284°
2026-04-21 20:48 -15.12787 139.50971 35989 ft 431 kts 285°
2026-04-21 20:49 -15.11043 139.45038 35993 ft 431 kts 285°
2026-04-21 20:49 -15.09301 139.39106 35992 ft 431 kts 285°
2026-04-21 20:50 -15.07562 139.33175 35993 ft 431 kts 285°
2026-04-21 20:50 -15.05824 139.27244 35991 ft 431 kts 285°
2026-04-21 20:51 -15.04073 139.21305 35987 ft 431 kts 285°
2026-04-21 20:51 -15.02320 139.15378 35991 ft 431 kts 285°
2026-04-21 20:52 -15.00563 139.09447 35994 ft 431 kts 285°
2026-04-21 20:52 -14.98809 139.03523 35998 ft 430 kts 285°
2026-04-21 20:53 -14.97061 138.97607 35994 ft 430 kts 285°
2026-04-21 20:53 -14.95309 138.91689 35992 ft 431 kts 285°
2026-04-21 20:54 -14.93555 138.85765 35986 ft 431 kts 285°
2026-04-21 20:54 -14.91802 138.79842 35982 ft 431 kts 285°
2026-04-21 20:55 -14.90042 138.73910 35987 ft 432 kts 285°
2026-04-21 20:55 -14.88272 138.67982 35989 ft 432 kts 285°
2026-04-21 20:56 -14.86511 138.62089 35978 ft 432 kts 285°
2026-04-21 20:56 -14.84746 138.56156 35990 ft 432 kts 285°
2026-04-21 20:57 -14.82981 138.50219 35988 ft 432 kts 285°
2026-04-21 20:57 -14.81209 138.44280 35989 ft 433 kts 285°
2026-04-21 20:58 -14.79722 138.39309 35978 ft 433 kts 286°
2026-04-21 20:58 -14.77941 138.33362 35967 ft 434 kts 286°
2026-04-21 20:59 -14.76164 138.27426 35973 ft 435 kts 286°
2026-04-21 20:59 -14.74375 138.21454 35981 ft 435 kts 286°
2026-04-21 21:00 -14.72584 138.15472 35985 ft 435 kts 285°
2026-04-21 21:00 -14.70795 138.09503 35994 ft 435 kts 286°
2026-04-21 21:01 -14.68994 138.03540 35997 ft 435 kts 286°
2026-04-21 21:01 -14.67186 137.97577 35985 ft 435 kts 286°
2026-04-21 21:02 -14.65399 137.91622 35987 ft 435 kts 286°
2026-04-21 21:02 -14.63605 137.85651 35976 ft 436 kts 286°
2026-04-21 21:03 -14.61796 137.79669 35978 ft 436 kts 286°
2026-04-21 21:03 -14.60000 137.73740 35988 ft 435 kts 286°
2026-04-21 21:04 -14.58181 137.67733 35992 ft 435 kts 286°
2026-04-21 21:04 -14.56397 137.61822 35996 ft 434 kts 286°
2026-04-21 21:05 -14.54600 137.55888 35988 ft 433 kts 286°
2026-04-21 21:05 -14.52793 137.49957 35976 ft 433 kts 286°
2026-04-21 21:06 -14.50993 137.44028 35974 ft 433 kts 286°
2026-04-21 21:06 -14.49189 137.38098 35970 ft 433 kts 286°
2026-04-21 21:07 -14.47383 137.32158 35967 ft 434 kts 286°
2026-04-21 21:07 -14.45572 137.26217 35974 ft 434 kts 286°
2026-04-21 21:08 -14.43764 137.20272 35976 ft 434 kts 286°
2026-04-21 21:08 -14.41954 137.14336 35987 ft 434 kts 286°
2026-04-21 21:09 -14.40143 137.08410 35990 ft 433 kts 286°
2026-04-21 21:09 -14.38329 137.02487 35979 ft 433 kts 286°
2026-04-21 21:10 -14.36509 136.96565 35979 ft 433 kts 286°
2026-04-21 21:10 -14.34692 136.90644 35964 ft 434 kts 286°
2026-04-21 21:11 -14.32872 136.84705 35960 ft 435 kts 287°
2026-04-21 21:11 -14.31048 136.78757 35962 ft 435 kts 286°
2026-04-21 21:12 -14.29231 136.72843 35964 ft 436 kts 287°
2026-04-21 21:12 -14.27395 136.66877 35968 ft 437 kts 287°
2026-04-21 21:13 -14.25561 136.60911 35972 ft 437 kts 287°
2026-04-21 21:13 -14.23720 136.54931 35975 ft 437 kts 287°
2026-04-21 21:14 -14.21876 136.48955 35978 ft 438 kts 287°
2026-04-21 21:14 -14.20022 136.42981 35980 ft 438 kts 287°
2026-04-21 21:15 -14.18179 136.37012 35983 ft 437 kts 287°
2026-04-21 21:15 -14.16333 136.31035 35980 ft 437 kts 287°
2026-04-21 21:16 -14.14488 136.25071 35980 ft 437 kts 287°
2026-04-21 21:16 -14.12632 136.19103 35977 ft 437 kts 287°
2026-04-21 21:17 -14.10780 136.13144 35977 ft 437 kts 287°
2026-04-21 21:17 -14.08930 136.07179 35977 ft 437 kts 287°
2026-04-21 21:18 -14.07084 136.01221 35981 ft 436 kts 287°
2026-04-21 21:18 -14.05230 135.95274 35975 ft 437 kts 287°
2026-04-21 21:19 -14.03369 135.89312 35969 ft 437 kts 287°
2026-04-21 21:19 -14.01510 135.83357 35968 ft 437 kts 287°
2026-04-21 21:20 -13.99649 135.77401 35971 ft 437 kts 287°
2026-04-21 21:20 -13.97801 135.71482 35970 ft 437 kts 287°
2026-04-21 21:21 -13.95943 135.65525 35968 ft 437 kts 287°
2026-04-21 21:21 -13.94105 135.59558 35970 ft 437 kts 283°
2026-04-21 21:22 -13.92851 135.53439 35967 ft 437 kts 281°
2026-04-21 21:22 -13.91618 135.47315 35968 ft 437 kts 281°
2026-04-21 21:23 -13.90390 135.41196 35971 ft 437 kts 281°
2026-04-21 21:23 -13.89147 135.35066 35968 ft 437 kts 281°
2026-04-21 21:24 -13.87904 135.28940 35971 ft 438 kts 281°
2026-04-21 21:24 -13.86664 135.22806 35974 ft 438 kts 281°
2026-04-21 21:25 -13.85423 135.16665 35979 ft 438 kts 281°
2026-04-21 21:25 -13.84175 135.10540 35982 ft 438 kts 281°
2026-04-21 21:26 -13.82929 135.04439 35982 ft 438 kts 281°
2026-04-21 21:26 -13.81678 134.98298 35983 ft 438 kts 281°
2026-04-21 21:27 -13.80440 134.92167 35988 ft 438 kts 281°
2026-04-21 21:27 -13.79194 134.86035 35977 ft 438 kts 281°
2026-04-21 21:28 -13.77939 134.79905 35972 ft 439 kts 281°
2026-04-21 21:29 -13.76040 134.70687 35975 ft 439 kts 281°
2026-04-21 21:29 -13.74783 134.64532 35979 ft 439 kts 281°
2026-04-21 21:30 -13.73529 134.58382 35983 ft 439 kts 281°
2026-04-21 21:30 -13.72267 134.52244 35986 ft 439 kts 281°
2026-04-21 21:31 -13.71000 134.46107 35986 ft 438 kts 281°
2026-04-21 21:31 -13.69737 134.39975 35985 ft 438 kts 281°
2026-04-21 21:32 -13.68475 134.33846 35982 ft 438 kts 281°
2026-04-21 21:32 -13.67204 134.27719 35981 ft 438 kts 282°
2026-04-21 21:33 -13.65904 134.21582 35973 ft 439 kts 282°
2026-04-21 21:33 -13.64605 134.15487 35974 ft 439 kts 282°
2026-04-21 21:34 -13.63303 134.09352 35979 ft 440 kts 282°
2026-04-21 21:34 -13.62009 134.03220 35979 ft 440 kts 282°
2026-04-21 21:35 -13.60700 133.97074 35985 ft 439 kts 282°
2026-04-21 21:35 -13.59387 133.90941 35989 ft 439 kts 282°
2026-04-21 21:36 -13.58084 133.84821 35988 ft 439 kts 282°
2026-04-21 21:36 -13.56776 133.78695 35993 ft 438 kts 282°
2026-04-21 21:37 -13.55474 133.72582 35990 ft 438 kts 282°
2026-04-21 21:37 -13.54158 133.66465 35984 ft 438 kts 282°
2026-04-21 21:38 -13.52839 133.60344 35984 ft 439 kts 282°
2026-04-21 21:38 -13.51525 133.54229 35995 ft 439 kts 282°
2026-04-21 21:39 -13.50207 133.48107 35990 ft 439 kts 282°
2026-04-21 21:39 -13.48885 133.41979 35992 ft 439 kts 282°
2026-04-21 21:40 -13.47571 133.35850 35995 ft 439 kts 282°
2026-04-21 21:40 -13.46249 133.29729 36002 ft 439 kts 282°
2026-04-21 21:41 -13.45000 133.23592 35994 ft 438 kts 276°
2026-04-21 21:41 -13.44434 133.17411 35989 ft 437 kts 275°
2026-04-21 21:42 -13.43851 133.11194 35990 ft 437 kts 275°
2026-04-21 21:42 -13.43267 133.04988 35993 ft 437 kts 275°
2026-04-21 21:43 -13.42686 132.98771 35985 ft 437 kts 275°
2026-04-21 21:43 -13.42097 132.92553 35980 ft 438 kts 275°
2026-04-21 21:44 -13.41506 132.86314 35984 ft 439 kts 275°
2026-04-21 21:44 -13.40918 132.80082 35981 ft 439 kts 275°
2026-04-21 21:45 -13.40324 132.73839 35981 ft 439 kts 275°
2026-04-21 21:45 -13.39728 132.67603 35980 ft 439 kts 275°
2026-04-21 21:46 -13.39123 132.61360 35976 ft 439 kts 275°
2026-04-21 21:46 -13.38527 132.55131 35980 ft 439 kts 275°
2026-04-21 21:47 -13.37931 132.48899 35977 ft 439 kts 275°
2026-04-21 21:47 -13.37435 132.43717 35978 ft 439 kts 275°
2026-04-21 21:48 -13.36838 132.37480 35982 ft 439 kts 275°
2026-04-21 21:48 -13.36229 132.31236 35976 ft 439 kts 275°
2026-04-21 21:49 -13.35625 132.25000 35975 ft 439 kts 275°
2026-04-21 21:49 -13.35015 132.18758 35976 ft 439 kts 275°
2026-04-21 21:50 -13.34409 132.12526 35969 ft 439 kts 276°
2026-04-21 21:50 -13.33799 132.06286 35956 ft 440 kts 276°
2026-04-21 21:51 -13.33181 132.00021 35939 ft 443 kts 276°
2026-04-21 21:51 -13.32327 131.93754 35937 ft 445 kts 285°
2026-04-21 21:52 -13.29825 131.87963 35808 ft 446 kts 302°
2026-04-21 21:52 -13.28064 131.85321 34661 ft 453 kts 304°
2026-04-21 21:52 -13.26225 131.82649 32921 ft 462 kts 305°
2026-04-21 21:52 -13.24343 131.79957 31504 ft 463 kts 305°
2026-04-21 21:53 -13.22467 131.77286 30329 ft 457 kts 305°
2026-04-21 21:53 -13.20621 131.74651 29218 ft 451 kts 305°
2026-04-21 21:53 -13.18829 131.72081 28822 ft 437 kts 304°
2026-04-21 21:53 -13.17081 131.69564 28280 ft 430 kts 304°
2026-04-21 21:54 -13.15361 131.67079 27764 ft 422 kts 304°
2026-04-21 21:54 -13.13682 131.64647 27256 ft 415 kts 305°
2026-04-21 21:54 -13.12030 131.62248 26770 ft 408 kts 305°
2026-04-21 21:54 -13.10402 131.59888 26289 ft 402 kts 305°
2026-04-21 21:55 -13.08799 131.57568 25825 ft 395 kts 305°
2026-04-21 21:55 -13.07223 131.55291 25391 ft 389 kts 305°
2026-04-21 21:55 -13.05672 131.53052 24950 ft 383 kts 305°
2026-04-21 21:55 -13.04119 131.50851 24506 ft 377 kts 309°
2026-04-21 21:56 -13.02326 131.48918 24102 ft 372 kts 319°
2026-04-21 21:56 -13.00297 131.47354 23674 ft 367 kts 326°
2026-04-21 21:56 -12.98168 131.45883 23205 ft 364 kts 326°
2026-04-21 21:56 -12.96077 131.44434 22776 ft 362 kts 326°
2026-04-21 21:57 -12.94024 131.43004 22364 ft 360 kts 326°
2026-04-21 21:57 -12.91956 131.41561 21928 ft 359 kts 326°
2026-04-21 21:57 -12.89890 131.40119 21501 ft 357 kts 326°
2026-04-21 21:57 -12.87841 131.38691 21082 ft 356 kts 326°
2026-04-21 21:58 -12.85801 131.37271 20650 ft 355 kts 326°
2026-04-21 21:58 -12.83764 131.35852 20220 ft 354 kts 326°
2026-04-21 21:58 -12.81732 131.34440 19792 ft 353 kts 326°
2026-04-21 21:58 -12.79697 131.33026 19369 ft 352 kts 326°
2026-04-21 21:59 -12.77674 131.31622 18943 ft 352 kts 326°
2026-04-21 21:59 -12.75649 131.30217 18515 ft 352 kts 326°
2026-04-21 21:59 -12.73630 131.28815 18067 ft 352 kts 326°
2026-04-21 21:59 -12.71606 131.27408 17621 ft 350 kts 326°
2026-04-21 22:00 -12.69602 131.26012 17203 ft 348 kts 326°
2026-04-21 22:00 -12.67600 131.24620 16791 ft 346 kts 326°
2026-04-21 22:00 -12.65610 131.23238 16373 ft 345 kts 326°
2026-04-21 22:00 -12.63635 131.21854 15949 ft 344 kts 324°
2026-04-21 22:01 -12.61875 131.20216 15537 ft 343 kts 311°
2026-04-21 22:01 -12.60501 131.18216 15122 ft 343 kts 298°
2026-04-21 22:01 -12.59576 131.15978 14714 ft 342 kts 289°
2026-04-21 22:01 -12.58813 131.13664 14295 ft 342 kts 289°
2026-04-21 22:02 -12.58050 131.11368 13899 ft 341 kts 289°
2026-04-21 22:02 -12.57285 131.09066 13463 ft 340 kts 289°
2026-04-21 22:02 -12.56526 131.06785 13056 ft 338 kts 289°
2026-04-21 22:02 -12.55780 131.04540 12646 ft 336 kts 289°
2026-04-21 22:03 -12.55018 131.02251 12235 ft 334 kts 289°
2026-04-21 22:03 -12.54274 131.00012 11830 ft 332 kts 289°
2026-04-21 22:03 -12.53541 130.97803 11429 ft 331 kts 289°
2026-04-21 22:03 -12.52804 130.95580 11025 ft 330 kts 289°
2026-04-21 22:04 -12.52059 130.93333 10601 ft 329 kts 289°
2026-04-21 22:04 -12.51332 130.91153 10288 ft 324 kts 289°
2026-04-21 22:04 -12.50606 130.88983 10176 ft 313 kts 289°
2026-04-21 22:04 -12.49921 130.86935 10050 ft 306 kts 289°
2026-04-21 22:05 -12.49231 130.84868 9717 ft 310 kts 289°
2026-04-21 22:05 -12.48530 130.82778 9342 ft 308 kts 289°
2026-04-21 22:05 -12.47843 130.80729 9136 ft 299 kts 288°
2026-04-21 22:05 -12.47179 130.78756 8982 ft 289 kts 288°
2026-04-21 22:06 -12.46532 130.76835 8759 ft 282 kts 288°
2026-04-21 22:06 -12.45899 130.74960 8445 ft 279 kts 288°
2026-04-21 22:06 -12.45267 130.73086 8085 ft 278 kts 289°
2026-04-21 22:06 -12.44635 130.71216 7731 ft 277 kts 289°
2026-04-21 22:07 -12.44005 130.69346 7385 ft 277 kts 288°
2026-04-21 22:07 -12.43339 130.67506 7036 ft 277 kts 297°
2026-04-21 22:07 -12.42084 130.66057 6706 ft 272 kts 331°
2026-04-21 22:07 -12.40306 130.65464 6113 ft 273 kts
2026-04-21 22:08 -12.38455 130.65844 5413 ft 277 kts 23°
2026-04-21 22:08 -12.36613 130.66551 4704 ft 286 kts 32°
2026-04-21 22:08 -12.35230 130.67919 4074 ft 271 kts 67°
2026-04-21 22:08 -12.34894 130.69697 3565 ft 250 kts 101°
2026-04-21 22:09 -12.35587 130.71242 3196 ft 232 kts 122°
2026-04-21 22:09 -12.36297 130.72639 2905 ft 213 kts 108°
2026-04-21 22:09 -12.36753 130.74059 2620 ft 206 kts 107°
2026-04-21 22:09 -12.37193 130.75420 2345 ft 197 kts 108°
2026-04-21 22:10 -12.37624 130.76701 2098 ft 182 kts 108°
2026-04-21 22:10 -12.38013 130.77850 1851 ft 161 kts 108°
2026-04-21 22:10 -12.38362 130.78875 1666 ft 147 kts 108°
2026-04-21 22:10 -12.38687 130.79842 1470 ft 142 kts 109°
2026-04-21 22:11 -12.39007 130.80788 1295 ft 139 kts 110°
2026-04-21 22:11 -12.39324 130.81723 1104 ft 139 kts 110°
2026-04-21 22:11 -12.39633 130.82639 923 ft 138 kts 110°
2026-04-21 22:11 -12.39946 130.83575 744 ft 137 kts 109°
2026-04-21 22:12 -12.40249 130.84490 558 ft 140 kts 111°
2026-04-21 22:12 -12.40553 130.85458 377 ft 140 kts 110°
2026-04-21 22:12 -12.40869 130.86371 218 ft 137 kts 113°
2026-04-21 22:12 -12.41184 130.87291 105 ft 135 kts 112°
2026-04-21 22:13 -12.41469 130.88095 91 ft 98 kts 109°
2026-04-21 22:13 -12.41630 130.88573 91 ft 47 kts 109°
2026-04-21 22:13 -12.41708 130.88797 92 ft 30 kts 108°
2026-04-21 22:13 -12.41772 130.88994 92 ft 29 kts 109°
2026-04-21 22:14 -12.41839 130.89189 92 ft 29 kts 109°
2026-04-21 22:14 -12.41890 130.89340 91 ft 14 kts 109°
2026-04-21 22:14 -12.41947 130.89409 92 ft 13 kts 165°
2026-04-21 22:14 -12.42039 130.89398 91 ft 14 kts 199°
2026-04-21 22:15 -12.42116 130.89348 93 ft 13 kts 233°
2026-04-21 22:15 -12.42144 130.89265 90 ft 12 kts 270°
2026-04-21 22:15 -12.42122 130.89186 93 ft 11 kts 290°
2026-04-21 22:15 -12.42097 130.89116 91 ft 10 kts 290°
2026-04-21 22:16 -12.42074 130.89050 91 ft 10 kts 290°
2026-04-21 22:16 -12.42051 130.88984 90 ft 10 kts 288°
2026-04-21 22:16 -12.42030 130.88918 91 ft 10 kts 288°
2026-04-21 22:16 -12.42010 130.88856 90 ft 9 kts 288°
2026-04-21 22:17 -12.41989 130.88793 93 ft 9 kts 288°
2026-04-21 22:17 -12.41969 130.88730 91 ft 9 kts 289°
2026-04-21 22:17 -12.41948 130.88669 92 ft 9 kts 289°
2026-04-21 22:17 -12.41927 130.88607 91 ft 9 kts 289°
2026-04-21 22:18 -12.41905 130.88544 92 ft 9 kts 290°
2026-04-21 22:18 -12.41880 130.88474 92 ft 13 kts 290°
2026-04-21 22:18 -12.41844 130.88370 91 ft 18 kts 288°
2026-04-21 22:18 -12.41799 130.88228 91 ft 18 kts 289°
2026-04-21 22:19 -12.41753 130.88088 91 ft 24 kts 288°
2026-04-21 22:19 -12.41742 130.88057 92 ft 0 kts 289°
2026-04-21 22:19 -12.41740 130.88051 91 ft 2 kts 289°
2026-04-21 22:20 -12.41732 130.88028 92 ft 5 kts 290°
2026-04-21 22:20 -12.41718 130.87990 93 ft 7 kts 290°
2026-04-21 22:20 -12.41699 130.87937 91 ft 9 kts 291°
2026-04-21 22:20 -12.41674 130.87871 92 ft 11 kts 290°
2026-04-21 22:21 -12.41645 130.87786 92 ft 14 kts 289°
2026-04-21 22:21 -12.41611 130.87688 91 ft 16 kts 289°
2026-04-21 22:21 -12.41575 130.87578 90 ft 17 kts 289°
2026-04-21 22:21 -12.41543 130.87492 92 ft 7 kts 303°
2026-04-21 22:22 -12.41497 130.87454 92 ft 11 kts 335°
2026-04-21 22:22 -12.41409 130.87454 92 ft 15 kts 14°
2026-04-21 22:22 -12.41292 130.87492 91 ft 20 kts 19°
2026-04-21 22:22 -12.41182 130.87534 90 ft 4 kts 21°
2026-04-21 22:23 -12.41139 130.87550 91 ft 9 kts 16°
2026-04-21 22:23 -12.41122 130.87551 90 ft 0 kts
2026-04-21 22:24 -12.41111 130.87553 92 ft 4 kts 14°
2026-04-21 22:24 -12.41067 130.87573 92 ft 10 kts 24°
2026-04-21 22:24 -12.40993 130.87610 90 ft 13 kts 33°
2026-04-21 22:25 -12.40959 130.87638 93 ft 5 kts 39°
2026-04-21 22:25 -12.40934 130.87657 90 ft 4 kts 32°
2026-04-21 22:25 -12.40909 130.87668 91 ft 3 kts 21°
2026-04-21 22:25 -12.40890 130.87675 92 ft 3 kts 20°
2026-04-21 22:26 -12.40875 130.87681 90 ft 2 kts 20°
2026-04-21 22:26 -12.40867 130.87683 92 ft 0 kts 20°